Location: Baker Hill
(37.1589°N, 89.8776°W)
Time: 05:43:00
(UTC+00:00)

Daily predictions for brighter satellites

Satellite Brightness Start Highest point End
(mag) Time Altitude Azimuth Time Altitude Azimuth Time Altitude Azimuth
CARTOSAT-1 3.7 01:44:51 10° SSE 01:49:02 61° ENE 01:53:14 10° N
DELTA 2 DEB (DPAF) 4.1 01:44:53 10° NNE 01:49:02 58° E 01:53:10 10° S
Cosmos 1470 Rocket 3.6 01:59:24 10° N 02:03:42 63° E 02:07:58 10° SSE
Cosmos 1626 4.4 02:03:21 10° SW 02:05:57 23° WNW 02:08:34 10° NNW
Cosmos 1470 3.5 02:02:54 10° NNE 02:06:16 32° ENE 02:09:26 11° SE
Okean O Rocket 1.6 02:01:54 10° SSE 02:06:17 78° ENE 02:10:40 10° N
Cosmos 540 Rocket 4.0 02:01:36 10° N 02:06:29 42° ENE 02:11:08 11° SE
Cosmos 1553 Rocket 4.4 02:01:19 10° N 02:07:16 47° E 02:13:17 10° SSE
Lacrosse 5 rocket 4.1 02:06:40 10° WSW 02:07:28 10° WSW 02:08:14 10° SW
IRIDIUM 106 4.4 02:02:22 10° N 02:07:32 60° E 02:12:39 10° SSE
USA 186 3.1 02:06:13 10° S 02:09:22 40° W 02:12:32 10° NNW
KORONAS-FOTON 3.7 02:05:57 10° S 02:09:37 67° E 02:13:19 10° NNE
Cosmos 1842 3.0 02:12:37 10° S 02:16:15 89° W 02:19:56 10° N
CZ-4B R/B 3.8 02:12:09 10° S 02:17:19 54° W 02:22:32 10° NNW
SeaSat 1 4.0 02:18:11 10° ESE 02:21:54 22° NE 02:25:37 10° N
Tiangong -2.2 02:19:28 10° WNW 02:22:38 87° NNE 02:24:57 17° ESE
CZ-4 R/B 3.8 02:20:30 10° SW 02:23:31 21° W 02:26:35 10° NW
Cosmos 1954 Rocket 4.3 02:20:04 10° SSW 02:25:20 71° WNW 02:30:37 10° NNE
SPOT 5 3.1 02:22:14 14° SE 02:25:33 42° ENE 02:29:40 10° N
Cosmos 1933 Rocket 3.7 02:23:30 10° N 02:27:53 58° E 02:31:33 14° SSE
SL-24 R/B 4.4 02:24:32 10° S 02:29:29 73° WSW 02:33:48 10° NNW
In-Cosmos 22 4.3 02:26:04 10° S 02:31:36 58° E 02:37:01 10° NNE
Cosmos 2360 Rocket 3.9 02:29:10 10° N 02:33:06 19° NE 02:36:45 11° E
Cosmos 676 Rocket 4.4 02:31:50 10° SSW 02:37:07 69° WNW 02:42:26 10° NNE
Resurs 01 Rocket 3.1 02:33:17 10° SSW 02:37:17 33° W 02:41:17 10° NNW
Cosmos 1707 3.1 02:34:33 10° SSW 02:38:05 59° W 02:41:40 10° N
ASTRO E2 3.5 02:38:59 10° SW 02:41:50 24° SSE 02:42:09 23° SSE
SL-16 R/B 2.7 02:40:17 10° N 02:45:46 47° ENE 02:49:14 21° SE
RESURS DK-1 3.7 02:44:14 10° N 02:47:43 26° ENE 02:49:28 20° E
Cosmos 2333 Rocket 3.7 02:45:22 10° N 02:49:56 24° ENE 02:53:10 15° E
SJ 16-02 2.5 02:50:26 22° ESE 02:50:53 22° E 02:54:14 10° NE
ERS-1 Rocket 3.2 02:49:41 22° SE 02:52:42 54° ENE 02:57:35 10° N
Meteor 1-15 Rocket 4.4 02:47:19 10° N 02:52:45 53° ENE 02:56:03 23° SSE
Cosmos 1707 Rocket 4.3 02:53:33 26° SE 02:55:08 34° E 02:59:08 10° NNE
CZ-4C R/B 4.2 02:52:56 10° N 02:56:59 53° WNW 03:00:57 10° SSW
Cosmos 1758 4.3 02:54:14 10° NNE 02:57:40 29° ENE 02:58:34 26° ESE
Terra 2.1 02:56:42 26° SE 02:59:03 51° ENE 03:03:36 10° N
MetOp-B 4.2 02:55:24 18° S 02:59:26 83° WSW 03:04:49 10° NNW
SL-27 R/B 2.4 02:59:50 39° E 02:59:50 39° E 03:02:07 10° NNE
Cosmos 841 Rocket 3.7 02:54:44 10° N 02:59:55 56° ENE 03:02:35 27° SE
Atlas Centaur 2 3.3 02:52:12 10° W 02:59:55 51° S 03:05:10 22° SE
Spot 2 Rocket 3.7 03:04:15 28° SE 03:06:41 54° ENE 03:11:37 10° N
USA 234 3.6 03:00:34 10° NE 03:07:04 70° NW 03:13:32 10° WSW
Aureole 3 4.4 03:06:44 27° E 03:07:06 27° E 03:10:52 10° NNE
Cosmos 2315 Rocket 4.3 03:03:11 10° N 03:09:25 53° E 03:12:38 28° SE
Cosmos 1300 3.1 03:09:44 10° N 03:13:05 39° E 03:13:23 38° E
IRS-1A Rocket 4.4 03:14:34 23° S 03:18:05 71° WSW 03:23:35 10° NNW
Cosmos 1400 Rocket 3.5 03:15:07 15° SSW 03:18:09 51° W 03:21:55 10° N
ARGOS Delta rocket 4.4 03:15:40 19° SSW 03:18:36 47° W 03:22:52 10° NNW
Cosmos 1441 Rocket 4.3 03:16:05 10° NNW 03:19:26 36° W 03:21:16 21° SSW
Okean 1-7 4.3 03:19:45 24° E 03:19:45 24° E 03:23:07 10° NE
Meteor 1-4 Rocket 4.1 03:20:59 18° NE 03:20:59 18° NE 03:22:13 10° NE
Cosmos 1733 Rocket 3.6 03:15:57 10° N 03:20:10 43° E 03:21:04 38° ESE
Okean-O 4.4 03:20:32 11° SSW 03:24:03 26° W 03:27:46 10° NW
ATLAS CENTAUR R/B 2.4 03:20:54 10° SW 03:24:08 37° NW 03:27:28 10° NNE
Cosmos 1356 Rocket 3.3 03:22:33 36° S 03:24:12 88° ESE 03:28:25 10° N
Cosmos 2322 Rocket 2.3 03:22:21 10° NNW 03:28:00 67° ENE 03:30:11 38° SE
Meteor 2-10 Rocket 3.5 03:24:29 10° N 03:30:01 88° E 03:32:12 37° S
Meteor 1-12 Rocket 4.3 03:24:00 10° N 03:30:03 88° E 03:32:54 33° S
Meteor 1-22 Rocket 4.5 03:24:58 10° NNW 03:30:40 69° W 03:33:59 27° S
Ariane Rocket 2.9 03:29:26 38° SSE 03:31:27 88° ENE 03:36:34 10° NNW
USA 245 3.7 03:32:06 41° SW 03:32:52 51° W 03:36:50 10° NNW
Cosmos 1315 Rocket 3.5 03:38:28 37° ENE 03:38:28 37° ENE 03:41:42 10° NNE
Cosmos 2228 Rocket 3.6 03:39:24 28° SSW 03:41:40 58° W 03:46:11 10° N
Cosmos 1953 3.9 03:38:49 10° NNE 03:41:18 22° ENE 03:41:18 22° ENE
Landsat 4 3.7 03:45:44 59° WSW 03:45:45 59° WSW 03:49:09 10° NNW
Cosmos 1241 Rocket 4.4 03:40:31 11° SSW 03:46:34 88° WNW 03:52:49 10° NNE
BlueWalker 3 2.8 03:48:25 37° NE 03:48:25 37° NE 03:50:48 10° NE
Meteor 1-21 4.4 03:45:53 26° SSW 03:49:13 72° W 03:55:02 10° N
MOS 1 Rocket 3.9 03:47:05 35° SSW 03:49:14 62° W 03:54:32 10° NNW
ATLAS 2AS CENTAUR R/B 2.8 03:44:39 10° NNW 03:51:23 64° NE 03:53:50 39° ESE
Cosmos 2219 Rocket 2.9 03:46:52 10° N 03:52:13 41° ENE 03:53:40 34° E
COSMOS 2428 4.4 03:50:41 10° N 03:54:53 21° NE 03:56:49 18° E
USA 281 4.3 03:54:58 23° E 03:57:43 32° ENE 04:03:22 10° N
SeaSat 1 3.0 03:57:51 39° SSW 03:59:01 47° WSW 04:03:45 10° NW
Tiangong 0.8 03:57:00 10° WSW 03:57:06 10° WSW 03:57:06 10° WSW
Cosmos 968 Rocket 4.3 03:55:15 15° SW 03:59:18 47° WNW 04:04:17 10° N
MetOp-A 4.0 04:00:19 59° SE 04:01:17 79° ENE 04:06:34 10° N
SPOT 3 Rocket 4.1 04:00:42 37° SSW 04:02:17 50° W 04:07:18 10° NNW
Landsat 5 4.1 04:04:12 10° N 04:08:09 50° WNW 04:08:59 43° WSW
Cosmos 1346 Rocket 3.7 04:07:30 10° NNW 04:11:06 38° W 04:11:06 38° W
Cosmos 1455 3.4 04:07:45 10° N 04:09:56 31° NNE 04:09:56 31° NNE
Cosmos 1703 Rocket 3.8 04:11:48 59° ENE 04:11:48 59° ENE 04:15:47 10° NNE
Okean 3 4.3 04:10:42 39° WSW 04:11:26 43° W 04:15:24 10° N
Cosmos 1814 Rocket 3.9 04:12:01 10° NNW 04:17:21 86° WSW 04:17:57 71° S
Cosmos 2360 Rocket 2.4 04:11:54 10° NNW 04:17:30 61° WSW 04:18:30 52° SSW
H-2A R/B 4.3 04:22:37 22° ENE 04:22:37 22° ENE 04:25:32 10° NNE
RESURS DK-1 4.2 04:22:10 10° NW 04:25:03 21° W 04:25:03 21° W
COSMOS 2455 3.0 04:27:48 54° ESE 04:27:48 54° ESE 04:33:27 10° NE
SJ 16-02 3.2 04:27:07 19° WSW 04:29:03 26° WNW 04:32:44 10° N
SL-16 R/B 3.9 04:25:17 10° NW 04:29:26 21° W 04:31:06 19° SW
Cosmos 839 Rocket 3.9 04:23:33 10° NNW 04:30:09 84° ENE 04:31:15 63° SE
Cosmos 2333 Rocket 2.7 04:28:55 10° NW 04:34:25 48° WSW 04:35:10 45° SW
Terra 4.1 04:35:24 13° WSW 04:36:53 14° W 04:39:23 10° WNW
CZ-3 Stage 3 4.0 03:59:01 10° W 04:39:33 63° SSW 04:43:33 42° SE
CZ-2C R/B 3.9 04:38:00 10° N 04:42:01 65° NW 04:42:01 65° NW
CENTAUR R/B 4.3 04:46:00 15° E 04:46:00 15° E 04:47:51 10° ENE
Cosmos 371 Rocket 4.0 04:49:55 43° NE 04:49:55 43° NE 04:53:24 10° NNE
Atlas Centaur 2 3.9 04:41:37 10° W 04:47:22 30° SW 04:47:22 30° SW
Cosmos 1709 Rocket 4.0 04:48:29 60° ESE 04:48:56 61° E 04:55:12 10° NNE
DNEPR-1 R/B 4.1 04:45:22 10° NNW 04:51:28 75° WSW 04:51:28 75° WSW
ARIANE 5 R/B 3.1 04:53:07 56° NNW 04:53:07 56° NNW 04:56:34 10° NNW
Cosmos 2237 Rocket 3.8 04:48:32 10° N 04:53:02 24° ENE 04:54:20 22° ENE
Cosmos 2227 Rocket 3.8 04:55:36 22° ENE 04:55:36 22° ENE 04:58:31 10° NE
Cosmos 2322 3.6 04:51:29 10° NNW 04:57:11 81° ENE 04:57:14 81° ENE
CZ-4C R/B 2.3 04:58:36 52° NNE 04:58:36 52° NNE 05:02:33 10° NNE
Meteor 1-24 Rocket 4.2 04:58:53 49° E 04:58:53 49° E 05:03:59 10° NNE
Cosmos 1375 Rocket 4.4 05:00:20 10° NNW 05:06:54 75° WSW 05:07:21 72° SSW
Cosmos 1486 Rocket 4.1 05:09:52 70° NW 05:09:52 70° NW 05:14:46 10° NNE
Cosmos 2322 Rocket 4.3 05:08:23 10° WNW 05:11:22 15° W 05:11:59 14° WSW
GP-B 4.4 05:09:35 10° NNW 05:13:05 34° WNW 05:13:05 34° WNW
Cosmos 2297 Rocket 2.2 05:14:18 69° ENE 05:14:18 69° ENE 05:19:23 10° NNE
Spot 4 4.2 05:17:30 61° N 05:17:30 61° N 05:21:31 10° N
Cosmos 1354 Rocket 4.4 05:26:08 57° NE 05:26:08 57° NE 05:30:29 10° NNE
H-2A R/B 4.0 05:24:26 10° NNE 05:26:17 22° NE 05:26:17 22° NE
Cosmos 2098 Rocket 4.0 05:26:33 10° N 05:33:09 71° E 05:33:21 70° E
Cosmos 2219 Rocket 3.7 05:31:20 10° NW 05:35:22 25° W 05:35:22 25° W
Meteor 2-5 Rocket 3.8 05:36:02 77° WNW 05:36:02 77° WNW 05:41:53 10° N
COSMOS 2428 3.1 05:33:54 10° NNW 05:38:48 52° W 05:38:48 52° W
ATLAS 2AS CENTAUR R/B 4.2 05:36:51 10° WNW 05:41:14 21° WSW 05:41:14 21° WSW
USA 281 3.6 05:41:51 46° WSW 05:41:57 46° WSW 05:48:15 10° NW
ALOS 2 3.7 05:44:00 42° NNW 05:44:00 42° NNW 05:46:59 10° NNW
Cosmos 2263 Rocket 3.8 05:47:05 22° E 05:47:05 22° E 05:50:13 10° NE
Okean 2 Rocket 4.3 05:44:06 10° N 05:47:13 39° NNE 05:47:13 39° NNE
Cosmos 2181 Rocket 3.8 05:52:34 10° N 05:58:44 89° N 05:58:44 89° N
Cosmos 2074 Rocket 3.8 06:03:57 82° E 06:03:57 82° E 06:10:11 10° N
Cosmos 990 Rocket 4.5 06:08:04 54° NE 06:08:04 54° NE 06:12:07 10° NNE
SL-12 R/B(2) 4.0 06:07:20 63° SSW 06:08:54 85° ESE 06:18:09 10° NNE
SL-4 R/B 4.0 06:23:34 10° NW 06:25:23 25° NW 06:25:23 25° NW
SL-16 R/B 3.0 06:25:31 10° N 06:30:56 43° ENE 06:32:00 39° E
Cosmos 1538 Rocket 4.5 06:26:59 10° N 06:32:02 53° ENE 06:32:02 53° ENE
CENTAUR R/B 2.6 06:33:07 57° WNW 06:33:37 59° NW 06:40:09 10° NNE
Cosmos 2082 3.9 06:36:51 62° E 06:36:51 62° E 06:41:57 10° NNE
Cosmos 2237 Rocket 3.0 06:31:54 10° NW 06:36:08 40° WNW 06:36:08 40° WNW
Cosmos 2227 Rocket 2.9 06:37:23 41° WNW 06:37:47 42° WNW 06:43:09 10° N
GEOS 3 Rocket 4.0 06:35:52 10° NNE 06:40:51 52° NW 06:41:02 52° WNW
Meteor 2-11 Rocket 4.4 06:44:03 70° W 06:44:11 70° W 06:50:16 10° N
CZ-2D R/B 4.2 06:41:59 10° ENE 06:44:52 15° E 06:45:38 14° ESE
Nadezhda 3 Rocket 3.8 06:39:23 10° N 06:45:40 84° W 06:45:55 81° SW
Okean 1 Rocket 4.4 06:41:45 10° NNW 06:44:26 34° NW 06:44:26 34° NW
CZ-4C R/B 4.5 06:44:29 10° WNW 06:46:52 13° NNW 06:49:30 10° N
Nimbus 7 Rocket 4.3 06:41:25 10° NNE 06:47:32 87° ESE 06:47:49 82° S
Meteor 1-11 4.4 06:56:29 62° ESE 06:56:46 63° E 07:02:30 10° NNE
Cosmos 2297 Rocket 4.4 06:56:05 12° W 06:58:23 15° NW 07:01:40 10° NNW
Cosmos 1937 Rocket 3.6 07:00:05 67° E 07:00:05 67° E 07:04:59 10° NNE
Aureole 1 Rocket 4.4 07:02:21 30° NNW 07:02:21 30° NNW 07:04:51 10° N
Meteor 1-21 Rocket 4.4 07:01:39 61° W 07:01:42 61° W 07:07:22 10° N
Cosmos 2219 3.6 07:01:34 48° WNW 07:01:52 49° WNW 07:07:19 10° N
H-2A R/B 4.1 07:00:46 10° NNW 07:03:04 18° NW 07:03:04 18° NW
Cosmos 1898 Rocket 3.5 07:05:14 72° NW 07:05:14 72° NW 07:10:06 10° NNE
Cosmos 1975 Rocket 3.8 07:05:59 51° N 07:05:59 51° N 07:09:20 10° N
ADEOS II 4.2 07:02:11 10° ENE 07:05:05 15° E 07:06:30 13° ESE
Cosmos 2327 Rocket 4.5 07:09:39 61° W 07:10:02 62° W 07:16:05 10° N
Resurs 1-4 Rocket 3.1 07:16:29 10° NNE 07:21:19 35° E 07:22:10 33° ESE
Helios 1A Rocket 3.9 07:23:30 40° NNW 07:23:30 40° NNW 07:26:00 10° NNW
Cosmos 1455 Rocket 4.0 07:17:53 10° NNW 07:21:03 40° NW 07:21:03 40° NW
SL-8 Rocket 3.8 07:21:49 68° SSW 07:22:39 85° W 07:28:52 10° N
NOSS 3-2 (A) 4.1 07:21:44 34° WNW 07:22:48 37° NW 07:28:16 10° NNE
Cosmos 1461 3.9 07:28:39 38° NNW 07:28:39 38° NNW 07:31:37 10° NNE
NOSS 3-2 (C) 2.9 07:28:54 72° W 07:29:16 76° WNW 07:35:07 10° NNE
Cosmos 2263 Rocket 2.9 07:28:45 39° W 07:29:27 41° WNW 07:34:42 10° N
Cosmos 1536 Rocket 4.0 07:34:38 54° E 07:34:38 54° E 07:38:57 10° NNE
Meteor 2-1 Rocket 4.1 07:28:55 10° NNW 07:34:48 77° W 07:35:31 67° SSW
USA 267 4.1 07:32:16 10° ENE 07:38:06 34° SE 07:39:25 31° SSE
Cosmos 1680 Rocket 3.6 07:36:39 10° NNW 07:41:51 72° ENE 07:43:07 50° SE
Cosmos 1959 Rocket 4.4 07:41:07 57° SSW 07:42:24 75° W 07:48:46 10° N
Cosmos 2112 Rocket 4.3 07:39:25 10° NNW 07:44:34 63° ENE 07:46:20 39° SE
Cosmos 1844 Rocket 3.1 07:47:26 45° SSE 07:48:38 53° ESE 07:54:03 10° NNE
Cosmos 1818 3.6 07:43:41 10° NNW 07:49:11 78° ENE 07:51:34 35° SE
Cosmos 1869 4.3 07:47:00 10° NNW 07:49:24 36° NW 07:49:24 36° NW
Cosmos 1437 Rocket 3.0 07:54:44 62° ENE 07:54:44 62° ENE 07:58:15 10° NNE
Delta 2 Rocket 4.4 07:57:55 32° ESE 07:57:55 32° ESE 08:00:16 10° E
COBE Rocket 4.3 07:53:12 10° N 07:58:12 51° WNW 07:58:51 48° W
Meteor 1-27 4.5 07:52:48 10° N 07:58:37 68° E 08:01:20 32° SSE
IDEFIX/ARIANE 42P 2.7 08:02:26 10° N 08:07:36 60° WNW 08:08:40 49° WSW
SL-16 R/B 3.6 08:10:18 10° NW 08:13:49 22° W 08:13:49 22° W
CZ-2C R/B 2.9 08:12:06 10° N 08:17:28 85° WNW 08:19:01 46° SSW
CZ-2C R/B 2.5 08:17:59 41° S 08:19:54 76° WSW 08:25:16 10° NNW
Cosmos 1603 4.0 08:14:18 10° NNW 08:20:02 67° ENE 08:25:41 10° SSE
Cosmos 1125 Rocket 4.1 08:21:20 29° SSE 08:23:44 50° ESE 08:28:50 10° NNE
Cosmos 1892 Rocket 4.2 08:22:13 31° SSE 08:23:57 51° E 08:28:15 10° NNE
GRACE-FO 1 4.4 08:24:45 74° W 08:24:45 74° W 08:28:16 10° N
GRACE-FO 2 4.4 08:25:11 73° W 08:25:11 73° W 08:28:42 10° N
CZ-2D R/B 2.2 08:20:01 10° N 08:25:15 60° WNW 08:26:55 41° SW
MSX 4.2 08:20:38 10° N 08:26:09 51° WNW 08:28:09 35° WSW
Cosmos 1821 Rocket 4.2 08:25:03 37° SW 08:27:07 52° W 08:33:07 10° N
Cosmos 1943 3.1 08:23:07 10° NNW 08:28:40 63° WSW 08:31:17 31° S
Cosmos 2228 3.8 08:26:17 10° NNW 08:30:02 33° W 08:30:02 33° W
Cosmos 494 Rocket 4.1 08:25:04 10° NNW 08:30:19 74° ENE 08:35:05 12° SSE
FENGYUN 3A 3.6 08:26:35 10° N 08:31:59 82° WNW 08:34:20 35° SSW
Cosmos 1867 4.1 08:30:15 33° WSW 08:32:17 49° NW 08:37:36 10° NNE
USA 238 DEB 3.9 08:32:42 29° WSW 08:35:38 51° NW 08:42:04 10° NNE
USA 238 3.9 08:32:45 29° WSW 08:35:40 52° NW 08:42:08 10° NNE
SL-24 DEB 4.1 08:32:23 10° N 08:36:58 89° W 08:38:54 35° S
AQUA 3.7 08:34:18 10° N 08:39:02 83° WNW 08:40:58 36° SSW
Cosmos 1812 3.7 08:39:39 10° N 08:43:03 40° E 08:45:49 14° SSE
ADEOS II 2.2 08:39:53 10° N 08:45:02 59° WNW 08:47:23 31° SW
ALOS 2.2 08:40:52 10° NNE 08:45:30 82° ESE 08:47:51 29° S
Orbus 7S? 3.6 08:45:09 10° NW 08:48:28 86° SW 08:55:09 10° SE
USA 81 4.4 08:47:18 10° N 08:52:34 66° E 08:57:47 10° SSE
SAR-Lupe-4 3.5 08:50:50 10° NNE 08:54:23 79° E 08:55:53 33° S
ATLAS 5 CENTAUR R/B 2.1 08:56:45 22° SSE 08:58:05 32° ESE 09:01:07 10° NE
Resurs 1-4 Rocket 3.4 08:56:35 10° NNW 09:00:54 26° WNW 09:03:13 19° WSW
Cosmos 1934 Rocket 4.1 08:59:41 21° SSW 09:03:59 66° W 09:10:20 10° N
Cosmos 1844 4.5 09:01:40 23° WSW 09:04:47 40° WNW 09:10:13 10° N
Cosmos 921 Rocket 3.2 09:00:50 10° NNW 09:04:52 46° W 09:06:57 25° SSW
SL-16 R/B 2.5 08:59:47 10° S 09:06:00 70° WSW 09:12:14 10° NNW
Cosmos 2123 Rocket 3.9 09:01:49 10° N 09:07:59 74° W 09:14:10 10° S
IRAS Rocket 4.2 09:02:34 10° NNE 09:08:04 81° WNW 09:12:11 18° SSW
NOSS 2-2 (C) 3.0 09:07:47 27° SSW 09:09:24 62° ESE 09:12:29 10° NE
Cosmos 1606 Rocket 4.2 09:05:21 10° NNW 09:09:25 37° W 09:11:20 24° SW
Meteor 1-28 Rocket 3.6 09:10:16 29° SW 09:11:24 38° W 09:14:44 10° NNW
Cosmos 2058 2.8 09:10:09 24° SSW 09:12:29 66° W 09:16:33 10° N
Iridium 2 4.1 09:14:59 22° WNW 09:14:59 22° WNW 09:16:45 10° NNW
CZ-4 R/B 4.1 09:12:59 10° NNE 09:17:56 71° ESE 09:22:49 10° S
NOSS 2-2 (D) 3.6 09:16:44 18° S 09:19:04 46° ESE 09:22:07 10° NE
Cosmos-2242 4.5 09:15:13 10° N 09:19:14 37° ENE 09:23:12 10° SSE
Cosmos 2298 Rocket 4.0 09:16:15 16° SSW 09:20:29 88° WNW 09:25:51 10° NNE
USA 267 3.5 09:14:50 10° NE 09:21:15 62° NW 09:26:45 15° WSW
Cosmos 1726 Rocket 4.3 09:20:28 10° NNW 09:24:27 34° W 09:27:08 18° SW
NOSS 2-3 (E) 3.4 09:22:57 18° SSW 09:25:32 61° ESE 09:29:13 10° NE
Cosmos 1238 Rocket 2.0 09:24:07 10° N 09:27:21 81° W 09:30:15 10° S
NOAA 11 4.2 09:25:26 10° NNE 09:30:56 86° WNW 09:36:23 10° SSW
METEOR-M 4.1 09:25:44 10° N 09:31:04 78° WNW 09:36:24 10° SSW
NOSS 2-3 (C) 3.2 09:28:26 17° SSW 09:31:09 73° ESE 09:34:53 10° NE
Cosmos 1844 Rocket 4.3 09:29:05 11° W 09:32:49 20° NW 09:36:55 10° N
Delta 2 Rocket 3.8 09:33:16 12° W 09:36:43 38° SSW 09:40:46 10° SE
Cosmos 724 4.2 09:34:54 10° NW 09:40:39 67° WSW 09:46:28 10° SSE
H-2A R/B 3.7 09:36:52 10° NNE 09:41:37 33° E 09:46:12 10° SSE
SEDSat Delta rocket 3.5 09:39:27 14° WSW 09:42:30 35° S 09:46:14 10° ESE
IRS-1D 3.7 09:41:15 10° NNE 09:46:24 78° ESE 09:51:26 10° S
BREEZE-M DEB (TANK) 4.3 09:46:26 10° W 09:49:23 23° SSW 09:56:09 10° SSE
Cosmos 1812 Rocket 4.4 09:46:43 10° N 09:50:59 54° E 09:55:15 10° SSE
Cosmos 220 Rocket 4.1 09:48:10 10° NNW 09:52:18 76° ENE 09:56:24 10° SSE
CZ-2C R/B 2.3 09:49:10 10° N 09:53:41 66° WNW 09:58:15 10° SSW
Cosmos 1602 Rocket 3.6 09:49:33 10° S 09:54:00 85° W 09:58:29 10° N
Envisat 3.6 09:50:46 10° N 09:55:32 42° WNW 10:00:15 10° SW
Cosmos 1544 4.3 09:55:25 11° WSW 09:56:45 14° WNW 09:58:14 10° NW
Lacrosse 5 3.3 09:52:23 10° S 09:56:51 33° ESE 10:01:20 10° ENE
Cosmos 2278 Rocket 3.0 09:51:58 10° S 09:57:26 52° ESE 10:02:55 10° NNE
Cosmos 1271 Rocket 2.5 09:56:38 10° S 10:00:12 81° W 10:03:48 10° N
Genesis I 3.3 09:58:43 10° NNW 10:02:20 73° ENE 10:05:56 10° SE
Cosmos 1862 3.1 10:01:15 10° S 10:05:03 80° W 10:08:52 10° N
Cosmos 2058 Rocket 4.3 10:01:57 10° NW 10:05:26 23° W 10:08:54 10° SW
Cosmos 1758 Rocket 3.8 10:02:13 10° SSW 10:06:32 51° W 10:10:51 10° N
Cosmos 1484 Rocket 3.9 10:06:15 10° NNE 10:09:54 43° E 10:13:30 10° S
Cosmos 2100 Rocket 4.1 10:05:12 10° S 10:11:25 90° WSW 10:17:36 10° N
Meteor 2-2 Rocket 4.3 10:06:46 10° NNW 10:12:21 66° W 10:17:54 10° S
